Total_Precipitation_Accumulation
0.00 0.00 0.00 0.01 0.01 0.01 0.02 0.05 0.13 0.17 0.15 0.22 0.32 0.53 0.73 0.81 0.97 1.27 1.47 1.47 1.45 1.75 2.23 2.60 2.85 3.02 3.35 3.53 3.67 3.66 3.88 4.26 4.57 4.43 4.10 3.88 3.59 3.32 3.07 2.80 2.63 2.66 2.63 2.77
0.00 0.01 0.01 0.01 0.01 0.01 0.02 0.07 0.15 0.18 0.17 0.28 0.42 0.65 0.83 1.03 1.25 1.35 1.27 1.27 1.42 1.79 2.29 2.66 2.93 3.09 3.35 3.61 4.01 4.10 4.27 4.61 4.73 4.57 4.45 4.27 4.11 3.70 3.55 3.38 3.12 2.76 2.56 2.63
0.01 0.01 0.01 0.01 0.02 0.02 0.04 0.08 0.14 0.15 0.23 0.38 0.48 0.89 1.08 1.26 1.39 1.38 1.30 1.49 1.51 1.59 2.01 2.29 2.42 2.61 2.79 2.93 3.19 3.46 3.93 4.38 4.50 4.57 4.48 4.43 4.43 3.93 3.66 3.48 3.22 2.85 2.59 2.50
0.01 0.01 0.01 0.02 0.02 0.02 0.06 0.06 0.07 0.11 0.21 0.48 0.55 1.12 1.36 1.57 1.67 1.54 1.46 1.39 1.36 1.59 1.93 1.94 1.80 1.96 2.22 2.22 2.54 2.95 3.37 3.68 3.87 3.98 3.96 3.95 3.87 3.73 3.65 3.49 3.05 2.78 2.52 2.41
0.02 0.02 0.02 0.04 0.03 0.03 0.05 0.05 0.08 0.13 0.21 0.43 0.49 0.84 1.36 1.76 1.91 1.54 1.45 1.33 1.38 1.60 1.64 1.60 1.63 1.73 1.90 2.07 2.39 2.70 2.98 3.25 3.41 3.49 3.54 3.60 3.48 3.47 3.38 3.17 2.88 2.60 2.39 2.24
0.02 0.04 0.04 0.03 0.03 0.04 0.05 0.08 0.15 0.21 0.38 0.73 0.63 0.75 1.27 1.67 1.53 1.33 1.28 1.09 1.19 1.37 1.46 1.51 1.60 1.73 1.86 2.16 2.52 2.80 3.01 3.21 3.27 3.05 2.94 2.93 2.96 3.02 2.95 2.73 2.50 2.24 2.12 1.99
0.13 0.10 0.07 0.05 0.06 0.07 0.08 0.17 0.58 0.95 1.27 1.16 0.73 0.84 1.44 1.34 1.00 0.94 1.04 1.01 1.00 1.05 1.19 1.31 1.50 1.71 1.89 1.99 2.09 2.53 2.94 3.09 3.00 2.75 2.56 2.46 2.55 2.65 2.55 2.39 2.29 2.16 1.95 1.79
0.28 0.25 0.13 0.09 0.12 0.13 0.13 0.24 0.70 0.97 1.03 1.01 0.80 1.21 1.72 1.35 0.91 0.77 0.87 0.86 0.76 0.71 0.68 0.78 0.97 1.08 1.18 1.21 1.27 1.44 1.72 1.97 2.06 1.95 1.93 1.96 2.00 2.05 2.02 2.15 2.00 1.97 1.84 1.69
0.17 0.15 0.10 0.12 0.17 0.18 0.24 0.29 0.30 0.51 0.70 1.05 1.05 1.24 1.35 1.13 0.89 0.85 0.93 0.84 0.67 0.63 0.58 0.65 0.76 0.76 0.85 0.91 0.98 1.13 1.38 1.61 1.63 1.62 1.62 1.63 1.66 1.69 1.69 1.75 1.68 1.66 1.69 1.61
0.10 0.11 0.11 0.11 0.15 0.18 0.20 0.28 0.43 0.68 0.92 1.07 1.13 1.42 1.61 1.44 1.19 1.05 1.00 0.88 0.67 0.55 0.54 0.60 0.70 0.69 0.80 0.97 1.13 1.26 1.36 1.45 1.44 1.41 1.38 1.30 1.42 1.43 1.48 1.45 1.39 1.39 1.46 1.47
0.08 0.10 0.13 0.19 0.22 0.22 0.23 0.30 0.46 0.64 0.70 0.91 1.27 1.38 1.15 1.12 1.10 1.15 1.14 0.96 0.72 0.55 0.49 0.55 0.67 0.73 0.81 0.94 1.08 1.21 1.30 1.39 1.36 1.31 1.35 1.39 1.40 1.41 1.40 1.36 1.29 1.34 1.41 1.43
0.09 0.12 0.17 0.25 0.22 0.16 0.22 0.33 0.48 0.71 0.77 0.81 0.97 1.10 0.72 0.74 0.86 0.93 0.93 0.75 0.58 0.51 0.49 0.57 0.69 0.73 0.87 0.95 0.99 1.00 1.09 1.27 1.28 1.29 1.40 1.58 1.54 1.51 1.44 1.32 1.25 1.31 1.33 1.37
0.15 0.16 0.28 0.55 0.50 0.27 0.26 0.25 0.36 0.50 0.61 0.70 0.91 1.09 0.70 0.70 0.86 0.86 0.80 0.67 0.61 0.59 0.59 0.67 0.72 0.72 0.83 0.94 0.97 0.96 1.03 1.17 1.30 1.34 1.40 1.52 1.50 1.46 1.39 1.33 1.29 1.29 1.31 1.37
0.13 0.15 0.26 0.63 0.68 0.44 0.32 0.28 0.31 0.44 0.55 0.53 0.54 0.75 0.77 0.77 0.89 0.86 0.81 0.72 0.72 0.65 0.68 0.80 0.89 0.82 0.81 0.84 0.86 0.88 1.01 1.17 1.18 1.18 1.23 1.31 1.27 1.24 1.26 1.28 1.25 1.23 1.29 1.36
0.14 0.17 0.18 0.28 0.38 0.41 0.38 0.31 0.27 0.30 0.33 0.44 0.48 0.64 0.83 0.86 0.89 0.79 0.73 0.73 0.76 0.72 0.69 0.75 0.70 0.65 0.65 0.67 0.69 0.75 0.79 0.91 1.05 1.14 1.18 1.26 1.31 1.29 1.28 1.24 1.19 1.26 1.31 1.28
0.20 0.24 0.23 0.31 0.39 0.42 0.41 0.37 0.30 0.27 0.27 0.32 0.40 0.58 0.68 0.75 0.78 0.79 0.73 0.72 0.72 0.65 0.63 0.57 0.47 0.43 0.47 0.54 0.59 0.64 0.67 0.75 0.89 0.91 0.99 1.20 1.34 1.35 1.31 1.21 1.22 1.28 1.29 1.33
0.31 0.34 0.33 0.38 0.47 0.56 0.59 0.38 0.34 0.34 0.31 0.42 0.65 0.75 0.77 0.90 0.90 0.80 0.70 0.64 0.56 0.50 0.47 0.44 0.38 0.38 0.44 0.52 0.58 0.64 0.71 0.75 0.81 0.84 0.90 0.99 1.12 1.18 1.13 1.08 1.09 1.14 1.20 1.31
0.36 0.51 0.53 0.51 0.68 0.84 0.68 0.40 0.33 0.37 0.37 0.38 0.51 0.60 0.67 0.88 0.93 0.71 0.56 0.53 0.47 0.45 0.43 0.43 0.45 0.47 0.58 0.59 0.64 0.77 0.89 0.91 0.90 0.97 0.99 0.98 1.03 1.12 1.15 1.11 1.11 1.20 1.26 1.30
0.32 0.51 0.58 0.64 0.79 0.81 0.68 0.55 0.46 0.50 0.58 0.42 0.47 0.54 0.60 0.61 0.69 0.73 0.53 0.55 0.57 0.50 0.49 0.49 0.50 0.57 0.71 0.71 0.75 0.88 0.92 0.97 1.00 1.02 1.05 1.06 1.08 1.15 1.20 1.20 1.28 1.39 1.47 1.37
0.41 0.53 0.68 0.66 0.83 0.99 0.81 0.63 0.52 0.60 1.01 0.68 0.52 0.47 0.54 0.58 0.86 0.93 0.64 0.52 0.51 0.51 0.56 0.62 0.60 0.66 0.74 0.81 0.96 1.06 1.08 1.15 1.20 1.14 1.11 1.15 1.24 1.30 1.35 1.48 1.68 1.76 1.76 1.67
0.82 0.84 0.83 0.80 0.87 0.90 0.77 0.60 0.56 1.01 1.26 0.75 0.59 0.51 0.55 0.60 0.73 0.80 0.66 0.56 0.53 0.58 0.68 0.78 0.89 0.95 0.99 0.91 1.01 1.16 1.30 1.37 1.38 1.47 1.46 1.42 1.51 1.60 1.68 1.90 2.04 2.07 2.05 2.14
1.08 1.09 1.03 1.03 1.19 1.23 0.88 0.84 1.01 1.19 1.06 0.85 0.71 0.67 0.61 0.59 0.60 0.65 0.64 0.64 0.61 0.65 0.79 0.86 0.94 0.99 1.06 1.14 1.23 1.27 1.32 1.41 1.51 1.56 1.63 1.70 1.84 1.78 1.85 2.12 2.19 2.29 2.42 2.42
1.07 1.11 1.13 1.19 1.27 1.14 1.01 1.14 1.18 1.07 1.12 1.04 0.85 0.80 0.74 0.71 0.65 0.61 0.62 0.66 0.70 0.71 0.74 0.83 0.90 1.00 1.13 1.22 1.32 1.46 1.51 1.53 1.63 1.74 1.82 1.95 2.11 2.23 2.29 2.44 2.55 2.54 2.53 2.53
1.19 1.04 1.19 1.36 1.43 1.31 1.32 1.29 1.25 1.22 1.18 1.03 0.86 0.85 0.78 0.72 0.65 0.65 0.69 0.70 0.71 0.72 0.68 0.71 0.83 1.00 1.14 1.26 1.44 1.66 1.67 1.59 1.69 1.85 1.89 2.03 2.18 2.26 2.35 2.52 2.58 2.61 2.60 2.60
1.36 1.32 1.57 1.76 1.73 1.71 1.69 1.53 1.33 1.20 1.07 0.98 0.87 0.85 0.79 0.73 0.70 0.67 0.70 0.72 0.67 0.63 0.64 0.70 0.79 0.95 1.07 1.08 1.26 1.51 1.67 1.74 1.87 1.95 2.02 2.16 2.31 2.43 2.51 2.43 2.47 2.55 2.58 2.51
1.44 1.54 1.76 1.95 1.78 1.72 1.76 1.55 1.30 1.24 1.24 1.16 1.12 1.11 1.00 0.90 0.88 0.78 0.69 0.67 0.64 0.62 0.65 0.75 0.79 0.85 0.95 1.01 1.18 1.34 1.57 1.75 2.01 2.06 2.11 2.20 2.28 2.42 2.43 2.42 2.31 2.22 2.13 2.09